OneWeb SL0589

operational
NORAD ID: 54655 Int'l Des: 2022-166 Owner: ONEWEBN Country: UK Constellation: oneweb
LEOCIRCULARPOLARONEWEB_TYPE

About OneWeb SL0589

Description loading...

Live Position

Loading 3D Globe...

Upcoming Passes

Altitude History

Altitude vs Time

uPlot chart will show altitude changes over time

Two-Line Element Set

1 54655U 22166P 26066.08259490 .00000049 00000-0 88133-4 0 9999
2 54655 87.9161 264.3470 0000944 62.1566 297.9663 13.21826668158052
Epoch: Mar 7, 2026 • Age: 15 hours

Current Status

Altitude 1179.7 km
Velocity 7.26 km/s
Sub-Earth Point 4.96°N, 121.77°W
Launch Date Dec 8, 2022
Age 3.2 years
Type internet

Technical Details

Classification Payload
Mass 148.00 kg
Dry Mass 140.00 kg
Total Mass 148.00 kg
Length 1.30 m
Diameter 1.00 m
Span 5.00 m
Shape Trapezoid+2 pan
Manufacturer ONEWUS
Bus Type ARROW
Phase Status In Orbit
Owner/State ONEWEBN/UK

Large Constellations

Loading constellations...